HUANJING 1A (HJ-1A)

Last updated on Thu Oct 23 2025 00:02:37 GMT+0000 (Coordinated Universal Time)

1 33320U 08041A 25295.29173838 .00002075 00000+0 25986-3 0 9994 2 33320 97.6510 285.7544 0018706 194.8170 165.2498 14.83162723923138
UTC large
Height (km)
Speed (km/s)
/
Latitude / Longitude
Inclination (degrees)
Orbital Period (minutes)
Azimuth
Elevation
Range (km)
Doppler Factor

Next 0 passes for location: London (51.5072 / 0.1276)

Sorry there are no passes over London.